Location: Dugenta
(41.1333°N, 14.4500°E)
Time: 14:05:58
(UTC+00:00)

Meteor 1-14 Rocket - Pass Details

Date: 03 March 2021
Orbit: 834 x 918 km, 81.3° (Epoch: 13 April)

Event Time Altitude Azimuth Distance (km) Brightness Sun altitude
Rises 17:36:43 0° 173° (S) 3,403 7.3 -8.6°
Reaches altitude 10° 17:39:12 10° 168° (SSE) 2,461 6.5 -9.0°
Maximum altitude 17:44:33 51° 94° (E) 1,049 4.3 -10.0°
Drops below altitude 10° 17:49:54 10° 20° (NNE) 2,454 6.4 -11.0°
Sets 17:52:21 0° 15° (NNE) 3,392 7.2 -11.5°
